EST,Max TemperatureF,Mean TemperatureF,Min TemperatureF,Max Dew PointF,MeanDew PointF,Min DewpointF,Max Humidity, Mean Humidity, Min Humidity, Max Sea Level PressureIn, Mean Sea Level PressureIn, Min Sea Level PressureIn, Max VisibilityMiles, Mean VisibilityMiles, Min VisibilityMiles, Max Wind SpeedMPH, Mean Wind SpeedMPH, Max Gust SpeedMPH,PrecipitationIn, CloudCover, Events, WindDirDegrees
2013-2-1,72,67,62,58,54,48,73,65,57,30.26,30.21,30.15,10,10,10,21,13,28,0.00,4,,25
2013-2-2,76,70,64,60,57,53,78,66,53,30.24,30.17,30.12,10,10,10,17,9,24,0.00,2,,53
2013-2-3,70,68,66,61,55,50,76,65,53,30.19,30.13,30.09,10,10,10,17,10,26,0.00,1,,7
2013-2-4,73,69,64,58,53,49,73,61,49,30.14,30.08,30.03,10,10,10,18,9,24,0.00,1,,50
2013-2-5,78,72,66,66,62,58,84,71,58,30.08,30.04,30.01,10,10,10,13,6,16,0.00,2,,81
2013-2-6,80,73,65,68,66,64,97,78,58,30.11,30.06,30.02,10,10,7,16,6,20,0.00,1,,56
2013-2-7,79,76,73,70,67,64,87,75,62,30.07,30.02,29.96,10,10,10,15,9,22,0.00,1,,125
2013-2-8,80,76,72,72,71,69,93,84,74,30.07,30.02,29.96,10,10,10,13,7,15,0.00,3,,261
2013-2-9,79,74,68,70,66,62,93,83,73,30.14,30.10,30.05,10,10,10,17,10,22,0.00,2,,45
2013-2-10,79,76,73,67,65,64,90,76,62,30.22,30.16,30.12,10,10,10,22,17,28,0.00,1,,102
2013-2-11,81,77,73,70,68,65,97,83,69,30.19,30.14,30.10,10,10,10,21,14,26,0.00,1,,117
2013-2-12,81,78,75,72,70,68,82,76,69,30.11,30.07,29.98,10,10,9,17,11,24,T,3,,141
2013-2-13,82,79,75,73,72,71,94,84,74,30.03,29.99,29.94,10,9,5,12,7,21,0.00,2,,144
2013-2-14,82,75,67,74,70,64,93,84,74,30.01,29.97,29.92,10,9,1,28,10,37,0.60,6,Rain,227
2013-2-15,75,71,67,68,66,64,93,86,79,30.02,29.98,29.94,10,9,4,17,8,23,0.18,8,Rain,31
2013-2-16,73,70,66,68,61,51,97,77,57,30.11,29.98,29.90,10,10,10,26,15,36,0.03,6,Rain,350
2013-2-17,66,60,54,49,43,37,77,64,51,30.30,30.23,30.11,10,10,10,24,14,35,0.00,4,,7
2013-2-18,72,63,53,56,49,37,67,59,51,30.30,30.24,30.18,10,10,10,21,12,29,0.00,2,,72
2013-2-19,78,74,69,69,64,54,90,72,53,30.17,30.14,30.09,10,10,10,16,8,21,T,4,,100
2013-2-20,79,74,68,68,67,64,93,79,64,30.12,30.06,30.01,10,10,10,17,7,14,0.00,4,,44
2013-2-21,80,75,70,70,68,66,93,80,67,30.08,30.04,30.00,10,10,10,16,10,23,0.00,1,,93
2013-2-22,81,78,74,72,71,70,93,84,74,30.09,30.04,30.00,10,10,10,14,10,22,0.00,1,,117
2013-2-23,81,79,76,73,72,71,94,84,74,30.03,29.99,29.94,10,10,7,14,8,18,0.00,2,,143
2013-2-24,82,79,75,75,73,71,100,87,74,30.01,29.96,29.92,10,9,6,9,5,14,0.00,1,,152
2013-2-25,82,80,77,74,73,72,88,79,69,29.92,29.87,29.81,10,9,6,18,9,21,T,2,,144
2013-2-26,82,80,77,75,73,71,85,80,74,29.94,29.88,29.81,10,10,7,22,11,28,0.04,3,Rain,191
2013-2-27,79,75,71,73,70,68,94,85,76,29.99,29.94,29.90,10,9,4,15,8,20,0.38,7,Rain,348
2013-2-28,74,68,61,67,60,53,90,74,57,30.02,29.98,29.94,10,10,10,16,8,21,0.02,8,Rain,3